TECHNOSAT (42829 NORAD) Tracking and Keplerian Element Data

This shows tracking and keplerian element data for the satellite.

Feedback or suggestion? Click here.




ElementValue
Catalog42829
NameTECHNOSAT
Epoch Orbit35384
Epoch Day13.11815372
Epoch Year2024
RAAN203.1221
Inclination97.3777
Eccentricity0.0011836
Argument of Perigee237.1156
Mean Anonmoly122.8927
Mean Motion14.95085228
Decay Rate4.569E-05
L11 42829U 17042E 24013.11815372 .00004569 00000+0 42126-3 0 9998
L22 42829 97.3777 203.1221 0011836 237.1156 122.8927 14.95085228353840



Live tracking and technical data element details for TECHNOSAT (NORAD 42829). TECHNOSAT can be tracked NOW for your location showing map with azimuth and elevation plus other details from your city location.







IsCatalogInMostPopularTable: catalog: 42829, numindb: 883
Update: records affected: 1



GetName: 42829 TECHNOSAT

Hit Count: updated at: Fri, 01 Mar 2024 11:24:34 GMT